Regional Weather Roundup
Issued by NWS Charleston, SC

Current Version | Previous Version | Graphics & Text | Print | Product List | Glossary On
Versions: 1 2 3 4 5 6 7 8 9 10 11 12 13 14 15 16 17 18 19 20 21 22 23 24 25 26 27 28 29 30 31 32 33 34 35 36 37 38 39 40 41 42 43 44 45 46 47 48 49 50
000 ASUS42 KCHS 161727 RWRCHS REGIONAL WEATHER ROUNDUP NATIONAL WEATHER SERVICE CHARLESTON SC 1200 PM EST MON JAN 16 2017 NOTE: "FAIR" INDICATES FEW OR NO CLOUDS BELOW 12,000 FEET WITH NO SIGNIFICANT WEATHER AND/OR OBSTRUCTIONS TO VISIBILITY. NOT ALL STATIONS ARE QUALITY CONTROLLED. USE DATA WITH CAUTION... ESPECIALLY DEWPOINT OBSERVATIONS. SCZ027-030-031-034>040-042>050-161800- ...SOUTHEAST SOUTH CAROLINA... CITY SKY/WX TMP DP RH WIND PRES REMARKS N CHARLESTON CLOUDY 62 57 83 NE6 30.35F HAZE WATERFRONT PRK N/A 57 57 100 N7 30.36F MOUNT PLEASANT CLOUDY 61 61 100 N6 30.35F JOHNS ISLAND N/A 61 61 100 N5 30.35F PINOPOLIS NOT AVBL MONCKS CORNER CLOUDY 55 55 100 NE5 30.36F FOG SUMMERVILLE CLOUDY N/A N/A N/A NE3 30.37F BEAUFORT MCAS CLOUDY 62 58 86 CALM 30.35F BEAUFORT ARPT CLOUDY 61 59 94 NE3 30.35F HILTON HEAD IS PTSUNNY 61 61 100 NE8 30.35F WALTERBORO CLOUDY 61 N/A N/A CALM 30.37S ALLENDALE CLOUDY 64 57 77 CALM 30.34F ...SOUTHERN MIDLANDS AND PEE DEE... CITY SKY/WX TMP DP RH WIND PRES REMARKS GEORGETOWN FOG 54 54 100 NE3 30.38F VSB 3/4 KINGSTREE CLOUDY 54 52 94 CALM 30.38F FOG ORANGEBURG CLOUDY 56 55 97 E6 30.37F FOG BARNWELL FAIR 64 57 77 NE7 30.35F HAZE AIKEN CLOUDY 54 54 100 NE6 30.39F FOG MANNING CLOUDY 54 52 94 NE5 30.38F FOG COLUMBIA CLOUDY 58 54 86 NE6 30.36F SUMTER CLOUDY 53 52 97 E6 30.36F FLORENCE FOG 51 51 100 NE6 30.40F VSB 3/4 MYRTLE BEACH CLOUDY 57 48 72 NE6 30.41F N MYRTLE BEACH CLOUDY 58 50 75 VRB6 30.38F $$ GAZ063-065-086>088-099>101-113>116-118-119-134>141-150-161800- ...SOUTHEAST GEORGIA... CITY SKY/WX TMP DP RH WIND PRES REMARKS SAVANNAH ARPT PTSUNNY 70 58 65 E6 30.34F HUNTER AAF MOSUNNY 69 58 68 VRB5 30.32F FORT STEWART PTSUNNY 71 60 67 CALM 30.31F STATESBORO HAZE 73 61 65 SE3 30.33F VSB 1/2 SYLVANIA CLOUDY N/A N/A N/A CALM 30.35F CLAXTON FAIR 74 72 93 CALM 30.32F ...CSRA...CENTRAL AND FAR SOUTHEAST GEORGIA... CITY SKY/WX TMP DP RH WIND PRES REMARKS THOMSON CLOUDY 64 59 82 CALM 30.38F AUGUSTA-BUSH CLOUDY 70 56 61 E5 30.34F AUGUSTA-DANIEL CLOUDY 66 54 65 E7 30.35F SWAINSBORO FAIR 73 57 56 CALM 30.32F VIDALIA SUNNY 75 61 60 S5 30.31F EASTMAN FAIR 77 42 29 S7 30.32F HAZLEHURST FAIR 75 60 59 SE6 30.30F ALMA SUNNY 75 58 55 VRB3 30.32F WAYCROSS SUNNY 78 60 53 S6 30.31F JESUP CLOUDY 75 55 50 S6 30.31F BAXLEY FAIR 75 61 60 S7 30.30F BRUNSWICK MOSUNNY 73 63 68 NE7 30.32F SAINT SIMONS PTSUNNY 70 60 70 E8 30.32F $$ SCZ027-028-034-036>038-045-046-048>050-GAZ119-141-161800- ...LAKE AND SUPPLEMENTAL COASTAL OBSERVATIONS... STATION/POSITION TIME TEMP WIND PRES WAVE SWELL AIR SEA DIR/SP/G HT/PER HT/PER/DIR (UTC) (F) (DEG/KT/KT) (MB) (FT/S) (FT/S/D) WINYAH BAY 1630 52 50/ 8 1029.0S LAKE MURRAY 1720 57 CALM / 3 1027.4 ACE BASIN NERRS 1645 61 340/ 2 1028.0S FORT PULASKI 1700 59 56 60/ 7/ 9 1027.8 SAPELO ISLAND 1700 72 30/ 6 1027.0 $$ ANZ835-935-AMZ111-154-330-350-352-354-370-450-454-472-161800- ...C-MAN AND BUOY OBSERVATIONS... STATION/POSITION TIME TEMP WIND PRES WAVE SWELL AIR SEA DIR/SP/G HT/PER HT/PER/DIR (UTC) (F) (DEG/KT/KT) (MB) (FT/S) (FT/S/D) BUOY 41004 1650 68 71 70/ 6/ 6 1026.7F 4/11 3/140/11 BUOY 41008 1650 62 60 40/ 8/ 8 1026.6F 2/11 2/110/11 FOLLY BEACH CMAN 1700 56 30/ 9/ 11 1028.2F CAPERS NEARSHORE 1708 53 54 40/ 14/ 17 1027.4F FRIPP NEARSHORE 1708 57 56 60/ 12/ 14 1027.3F STATION/POSITION TIME TEMP WIND PRES WAVE SWELL AIR SEA DIR/SP/G HT/PER HT/PER/DIR (UTC) (F) (DEG/KT/KT) (MB) (FT/S) (FT/S/D) 5E ST. MARYS GA 1700 61 N/A 2/10 2/110/11 FRYING PAN BUOY 1710 65 71 30/ 17/ 21 1027.3 BUOY 41025 1650 57 74 10/ 17/ 21 1028.8F 4/ 8 2/ 80/ 8 CAPE LOOKOUT NC 1700 51 30/ 13/ 14 1029.1F BUOY 41002 1650 69 72 120/ 6/ 8 1027.0F 4/ 8 3/ 30/ 8 BUOY 41010 NOT AVBL ST AUGUSTINE FL 1700 68 63 80/ 4/ 4 1026.9F $$

USA.gov is the U.S. government's official web portal to all federal, state and local government web resources and services.